Time,TemperatureF,DewpointF,PressureIn,WindDirection,WindDirectionDegrees,WindSpeedMPH,WindSpeedGustMPH,Humidity,HourlyPrecipIn,Conditions,Clouds,dailyrainin,SoftwareType,DateUTC
2013-04-06 00:13:00,64.2,63.9,29.77,West,270,3.7,-999.0,99,-99.99,,,0.00,Acu-Link.com,2013-04-06 04:13:00,
2013-04-06 00:28:00,64.0,63.7,29.77,West,270,4.7,-999.0,99,-99.99,,,0.00,Acu-Link.com,2013-04-06 04:28:00,
2013-04-06 00:43:00,63.7,63.1,29.78,WSW,247,4.2,-999.0,98,-99.99,,,0.00,Acu-Link.com,2013-04-06 04:43:00,
2013-04-06 00:58:00,63.3,62.7,29.78,WSW,247,4.2,-999.0,98,-99.99,,,0.00,Acu-Link.com,2013-04-06 04:58:00,
2013-04-06 01:13:00,63.0,62.4,29.78,West,270,3.2,-999.0,98,-99.99,,,0.00,Acu-Link.com,2013-04-06 05:13:00,
2013-04-06 01:28:00,62.8,62.2,29.78,West,270,3.7,-999.0,98,-99.99,,,0.00,Acu-Link.com,2013-04-06 05:28:00,
2013-04-06 01:44:00,62.8,62.2,29.78,West,270,2.7,-999.0,98,-99.99,,,0.00,Acu-Link.com,2013-04-06 05:44:00,
2013-04-06 01:59:00,62.4,62.1,29.77,West,270,2.7,-999.0,99,-99.99,,,0.00,Acu-Link.com,2013-04-06 05:59:00,
2013-04-06 02:14:00,62.2,61.9,29.78,West,270,2.7,-999.0,99,-99.99,,,0.00,Acu-Link.com,2013-04-06 06:14:00,
2013-04-06 03:04:00,63.7,63.4,29.78,North,0,5.3,-999.0,99,-99.99,,,0.00,Acu-Link.com,2013-04-06 07:04:00,
2013-04-06 03:19:00,63.7,63.1,29.79,SSW,202,6.3,-999.0,98,-99.99,,,0.00,Acu-Link.com,2013-04-06 07:19:00,
2013-04-06 03:50:00,63.0,62.1,29.79,West,270,5.8,-999.0,97,-99.99,,,0.00,Acu-Link.com,2013-04-06 07:50:00,
2013-04-06 04:08:00,62.8,61.6,29.79,WNW,292,8.9,-999.0,96,-99.99,,,0.00,Acu-Link.com,2013-04-06 08:08:00,
2013-04-06 04:23:00,62.4,61.2,29.78,West,270,5.8,-999.0,96,-99.99,,,0.00,Acu-Link.com,2013-04-06 08:23:00,
2013-04-06 04:38:00,62.1,61.2,29.78,West,270,6.3,-999.0,97,-99.99,,,0.00,Acu-Link.com,2013-04-06 08:38:00,
2013-04-06 04:53:00,61.7,60.8,29.78,WNW,292,5.3,-999.0,97,-99.99,,,0.00,Acu-Link.com,2013-04-06 08:53:00,
2013-04-06 05:09:00,61.3,60.4,29.78,West,270,4.7,-999.0,97,-99.99,,,0.00,Acu-Link.com,2013-04-06 09:09:00,
2013-04-06 05:39:00,60.6,60.0,29.80,NW,315,6.8,-999.0,98,-99.99,,,0.00,Acu-Link.com,2013-04-06 09:39:00,
2013-04-06 05:54:00,60.1,59.5,29.81,WNW,292,6.8,-999.0,98,-99.99,,,0.00,Acu-Link.com,2013-04-06 09:54:00,
2013-04-06 06:09:00,59.7,59.1,29.81,WNW,292,9.4,-999.0,98,-99.99,,,0.00,Acu-Link.com,2013-04-06 10:09:00,
2013-04-06 06:24:00,59.4,58.8,29.82,WNW,292,5.8,-999.0,98,-99.99,,,0.00,Acu-Link.com,2013-04-06 10:24:00,
2013-04-06 06:39:00,58.8,58.5,29.82,WNW,292,2.7,-999.0,99,-99.99,,,0.00,Acu-Link.com,2013-04-06 10:39:00,
2013-04-06 06:54:00,58.5,58.2,29.81,WNW,292,3.2,-999.0,99,-99.99,,,0.00,Acu-Link.com,2013-04-06 10:54:00,
2013-04-06 07:09:00,58.3,58.0,29.83,North,0,1.7,-999.0,99,-99.99,,,0.00,Acu-Link.com,2013-04-06 11:09:00,
2013-04-06 07:25:00,58.5,58.2,29.84,NNW,337,4.2,-999.0,99,-99.99,,,0.00,Acu-Link.com,2013-04-06 11:25:00,
2013-04-06 07:40:00,59.0,58.4,29.85,WNW,292,3.7,-999.0,98,-99.99,,,0.00,Acu-Link.com,2013-04-06 11:40:00,
2013-04-06 07:55:00,59.5,58.1,29.87,WNW,292,9.4,-999.0,95,-99.99,,,0.00,Acu-Link.com,2013-04-06 11:55:00,
2013-04-06 08:10:00,59.9,58.2,29.87,NW,315,7.8,-999.0,94,-99.99,,,0.00,Acu-Link.com,2013-04-06 12:10:00,
2013-04-06 08:25:00,60.8,58.5,29.88,NNW,337,13.5,-999.0,92,-99.99,,,0.00,Acu-Link.com,2013-04-06 12:25:00,
2013-04-06 08:40:00,62.1,58.5,29.87,NW,315,11.4,-999.0,88,-99.99,,,0.00,Acu-Link.com,2013-04-06 12:40:00,
2013-04-06 08:55:00,62.1,58.5,29.88,NW,315,4.7,-999.0,88,-99.99,,,0.00,Acu-Link.com,2013-04-06 12:55:00,
2013-04-06 09:11:00,64.9,59.9,29.86,NNW,337,7.8,-999.0,84,-99.99,,,0.00,Acu-Link.com,2013-04-06 13:11:00,
2013-04-06 09:41:00,67.5,60.8,29.86,NNW,337,3.2,-999.0,79,-99.99,,,0.00,Acu-Link.com,2013-04-06 13:41:00,
2013-04-06 09:56:00,67.5,60.8,29.87,NW,315,4.7,-999.0,79,-99.99,,,0.00,Acu-Link.com,2013-04-06 13:56:00,
2013-04-06 10:11:00,68.5,61.4,29.87,NNE,22,4.2,-999.0,78,-99.99,,,0.00,Acu-Link.com,2013-04-06 14:11:00,
2013-04-06 10:26:00,69.3,61.8,29.87,NW,315,5.3,-999.0,77,-99.99,,,0.00,Acu-Link.com,2013-04-06 14:26:00,
2013-04-06 10:41:00,70.5,61.8,29.88,NW,315,6.8,-999.0,74,-99.99,,,0.00,Acu-Link.com,2013-04-06 14:41:00,
2013-04-06 10:56:00,71.4,61.9,29.88,WNW,292,8.9,-999.0,72,-99.99,,,0.00,Acu-Link.com,2013-04-06 14:56:00,
2013-04-06 11:12:00,72.0,62.5,29.88,WNW,292,4.7,-999.0,72,-99.99,,,0.00,Acu-Link.com,2013-04-06 15:12:00,
2013-04-06 11:27:00,73.8,63.0,29.88,WNW,292,5.3,-999.0,69,-99.99,,,0.00,Acu-Link.com,2013-04-06 15:27:00,
2013-04-06 11:42:00,73.6,63.6,29.88,NE,45,5.8,-999.0,71,-99.99,,,0.00,Acu-Link.com,2013-04-06 15:42:00,
2013-04-06 11:57:00,75.4,63.7,29.87,NNE,22,6.8,-999.0,67,-99.99,,,0.00,Acu-Link.com,2013-04-06 15:57:00,
2013-04-06 12:12:00,75.4,63.7,29.88,East,90,5.8,-999.0,67,-99.99,,,0.00,Acu-Link.com,2013-04-06 16:12:00,
2013-04-06 12:27:00,74.3,63.9,29.88,East,90,9.4,-999.0,70,-99.99,,,0.00,Acu-Link.com,2013-04-06 16:27:00,
2013-04-06 12:43:00,73.9,63.9,29.88,NNE,22,9.9,-999.0,71,-99.99,,,0.00,Acu-Link.com,2013-04-06 16:43:00,
2013-04-06 12:58:00,74.7,64.2,29.88,NE,45,9.9,-999.0,70,-99.99,,,0.00,Acu-Link.com,2013-04-06 16:58:00,
2013-04-06 13:13:00,74.5,64.5,29.88,NE,45,9.4,-999.0,71,-99.99,,,0.00,Acu-Link.com,2013-04-06 17:13:00,
2013-04-06 13:28:00,74.7,65.1,29.88,ENE,67,10.9,-999.0,72,-99.99,,,0.00,Acu-Link.com,2013-04-06 17:28:00,
2013-04-06 13:43:00,72.9,66.0,29.88,East,90,6.8,-999.0,79,-99.99,,,0.00,Acu-Link.com,2013-04-06 17:43:00,
2013-04-06 13:58:00,74.7,66.2,29.87,NE,45,10.4,-999.0,75,-99.99,,,0.00,Acu-Link.com,2013-04-06 17:58:00,
2013-04-06 14:13:00,73.8,65.0,29.87,East,90,10.4,-999.0,74,-99.99,,,0.00,Acu-Link.com,2013-04-06 18:13:00,
2013-04-06 14:28:00,72.3,66.5,29.87,East,90,5.8,-999.0,82,-99.99,,,0.01,Acu-Link.com,2013-04-06 18:28:00,
2013-04-06 15:14:00,74.1,63.3,29.87,ENE,67,13.5,-999.0,69,-99.99,,,0.01,Acu-Link.com,2013-04-06 19:14:00,
2013-04-06 15:29:00,76.3,63.2,29.86,ENE,67,9.9,-999.0,64,-99.99,,,0.01,Acu-Link.com,2013-04-06 19:29:00,
2013-04-06 15:44:00,75.7,62.6,29.86,ENE,67,7.8,-999.0,64,-99.99,,,0.01,Acu-Link.com,2013-04-06 19:44:00,
2013-04-06 16:14:00,75.0,62.0,29.86,NNE,22,11.4,-999.0,64,-99.99,,,0.01,Acu-Link.com,2013-04-06 20:14:00,
2013-04-06 16:30:00,76.5,62.0,29.85,NNE,22,13.0,-999.0,61,-99.99,,,0.01,Acu-Link.com,2013-04-06 20:30:00,
2013-04-06 16:45:00,76.5,62.0,29.86,East,90,11.9,-999.0,61,-99.99,,,0.01,Acu-Link.com,2013-04-06 20:45:00,
2013-04-06 17:00:00,75.9,61.0,29.86,East,90,9.9,-999.0,60,-99.99,,,0.01,Acu-Link.com,2013-04-06 21:00:00,
2013-04-06 17:15:00,75.7,61.3,29.87,ENE,67,8.3,-999.0,61,-99.99,,,0.01,Acu-Link.com,2013-04-06 21:15:00,
2013-04-06 17:30:00,75.6,61.2,29.87,ENE,67,8.3,-999.0,61,-99.99,,,0.01,Acu-Link.com,2013-04-06 21:30:00,
2013-04-06 17:45:00,75.9,60.0,29.87,ENE,67,8.3,-999.0,58,-99.99,,,0.01,Acu-Link.com,2013-04-06 21:45:00,
2013-04-06 18:01:00,75.9,61.0,29.88,NE,45,10.9,-999.0,60,-99.99,,,0.01,Acu-Link.com,2013-04-06 22:01:00,
2013-04-06 18:16:00,75.7,60.8,29.88,NE,45,13.5,-999.0,60,-99.99,,,0.01,Acu-Link.com,2013-04-06 22:16:00,
2013-04-06 19:01:00,74.1,60.2,29.89,NE,45,9.4,-999.0,62,-99.99,,,0.01,Acu-Link.com,2013-04-06 23:01:00,
2013-04-06 19:16:00,73.8,60.4,29.89,ENE,67,9.4,-999.0,63,-99.99,,,0.01,Acu-Link.com,2013-04-06 23:16:00,
2013-04-06 19:31:00,72.9,60.4,29.90,NE,45,9.9,-999.0,65,-99.99,,,0.01,Acu-Link.com,2013-04-06 23:31:00,
2013-04-06 19:46:00,72.3,60.3,29.90,ENE,67,5.8,-999.0,66,-99.99,,,0.01,Acu-Link.com,2013-04-06 23:46:00,
2013-04-06 20:01:00,72.1,60.1,29.90,NE,45,5.8,-999.0,66,-99.99,,,0.01,Acu-Link.com,2013-04-07 00:01:00,
2013-04-06 20:17:00,71.6,60.0,29.90,ENE,67,5.3,-999.0,67,-99.99,,,0.01,Acu-Link.com,2013-04-07 00:17:00,
2013-04-06 20:32:00,71.1,60.0,29.90,NE,45,4.7,-999.0,68,-99.99,,,0.01,Acu-Link.com,2013-04-07 00:32:00,
2013-04-06 20:47:00,70.5,60.2,29.91,NE,45,3.7,-999.0,70,-99.99,,,0.01,Acu-Link.com,2013-04-07 00:47:00,
2013-04-06 21:17:00,70.2,61.1,29.91,NE,45,5.3,-999.0,73,-99.99,,,0.01,Acu-Link.com,2013-04-07 01:17:00,
2013-04-06 21:32:00,70.2,62.3,29.92,NE,45,4.2,-999.0,76,-99.99,,,0.01,Acu-Link.com,2013-04-07 01:32:00,
2013-04-06 21:47:00,70.3,62.4,29.92,NE,45,7.8,-999.0,76,-99.99,,,0.01,Acu-Link.com,2013-04-07 01:47:00,
2013-04-06 22:02:00,70.5,61.8,29.92,East,90,4.7,-999.0,74,-99.99,,,0.01,Acu-Link.com,2013-04-07 02:02:00,
2013-04-06 22:17:00,70.5,62.6,29.92,ESE,112,4.2,-999.0,76,-99.99,,,0.01,Acu-Link.com,2013-04-07 02:17:00,
2013-04-06 22:33:00,70.5,62.6,29.93,NE,45,4.2,-999.0,76,-99.99,,,0.01,Acu-Link.com,2013-04-07 02:33:00,
2013-04-06 22:48:00,71.1,63.1,29.92,East,90,3.7,-999.0,76,-99.99,,,0.01,Acu-Link.com,2013-04-07 02:48:00,
2013-04-06 23:03:00,71.2,63.2,29.93,NE,45,5.8,-999.0,76,-99.99,,,0.01,Acu-Link.com,2013-04-07 03:03:00,
2013-04-06 23:18:00,71.6,63.6,29.93,ESE,112,4.7,-999.0,76,-99.99,,,0.01,Acu-Link.com,2013-04-07 03:18:00,
2013-04-06 23:33:00,71.6,63.6,29.93,East,90,6.8,-999.0,76,-99.99,,,0.01,Acu-Link.com,2013-04-07 03:33:00,
2013-04-06 23:48:00,71.6,63.6,29.94,East,90,4.2,-999.0,76,-99.99,,,0.01,Acu-Link.com,2013-04-07 03:48:00,